STARLINK-34729

Last updated on Tue Sep 16 2025 00:02:07 GMT+0000 (Coordinated Universal Time)

1 65364U 25190P 25258.05217597 -.00640022 00000+0 -72245-2 0 9996 2 65364 53.1588 267.5969 0001510 115.0649 245.0523 15.63873750 3237
UTC large
Height (km)
Speed (km/s)
/
Latitude / Longitude
Inclination (degrees)
Orbital Period (minutes)
Azimuth
Elevation
Range (km)
Doppler Factor

Next 0 passes for location: London (51.5072 / 0.1276)

Sorry there are no passes over London.